Weather observations for the past three days for
Rock Springs, Rock Springs-Sweetwater County Airport
Metric (Imperial)
Date Time (mdt) Wind (kph) Vis. (km) Weather Sky Cond. Temperature (ºC) Relative Humidity Wind Chill (°C) Heat Index (°C) Pressure Precipitation (cm)
Air Dwpt 6 hour altimeter (cm) sea level (mb) 1 hr 3 hr 6 hr
Max. Min.
15 03:54 W 9 16.09 Overcast OVC110 17.8 6.1 46% 76.99 1017.2
15 02:54 NW 13 16.09 Mostly Cloudy BKN120 17.2 6.7 50% 76.91 1016.6
15 01:54 SW 7 16.09 Fair CLR 18.3 6.7 47% 76.91 1015.1
15 00:54 SE 17 16.09 Fair CLR 19.4 6.7 44% 76.91 1015.1
14 23:54 Calm 16.09 A Few Clouds FEW110 21.1 6.7 30.6 20.6 39% 76.91 1015.3
14 22:54 NW 15 16.09 Mostly Cloudy BKN120 21.7 7.2 39% 76.89 1014.7
14 21:54 NW 15 16.09 Fair CLR 24.4 3.3 25% 25 76.86 1014.2
14 20:54 SW 13 16.09 Mostly Cloudy BKN110 27.2 2.8 21% 26 76.81 1013.1
14 19:54 SW 15 16.09 A Few Clouds FEW120 28.3 3.3 20% 27 76.81 1013.3
14 18:54 N 13 16.09 Fair CLR 29.4 3.9 20% 28 76.84 1013.6
14 17:54 W 15 G 41 16.09 A Few Clouds FEW110 30.6 2.2 32.8 22.8 16% 29 76.84 1014.1
14 16:54 S 15 16.09 Fair CLR 29.4 2.8 18% 28 76.91 1014.6
14 15:54 S 19 16.09 A Few Clouds FEW120 26.1 4.4 25% 26 76.99 1016.6
14 14:54 SW 54 G 81 16.09 Mostly Cloudy and Windy FEW075 FEW090 BKN110 25 6.1 30% 25 77.04 1017.4
14 13:54 SW 15 16.09 A Few Clouds FEW120 30.6 2.2 16% 29 76.99 1015.6
14 12:54 SW 20 G 33 16.09 Fair CLR 30.6 3.3 18% 29 77.06 1016.6
14 11:54 SW 20 16.09 A Few Clouds FEW065 27.8 3.3 28.3 17.8 21% 27 77.14 1018.0
14 10:54 SW 28 16.09 Partly Cloudy SCT110 27.8 3.9 22% 27 77.17 1018.5
14 09:54 W 11 16.09 A Few Clouds FEW110 26.7 3.9 23% 26 77.14 1018.0
14 08:54 NW 11 16.09 Fair CLR 25.6 3.9 25% 25 77.14 1017.9
14 07:54 N 11 16.09 A Few Clouds FEW110 22.2 3.9 30% 77.14 1018.1
14 06:54 SW 15 16.09 Fair CLR 21.1 3.3 31% 77.14 1018.3
14 05:54 SW 15 16.09 Fair CLR 17.8 2.2 23.3 17.8 35% 77.14 1018.6
14 04:54 Calm 16.09 Fair CLR 22.2 2.2 27% 77.06 1016.7
14 03:54 W 11 16.09 Fair CLR 20.6 2.2 30% 77.04 1016.3
14 02:54 SW 11 16.09 Fair CLR 21.7 1.7 27% 77.04 1015.9
14 01:54 S 13 16.09 Fair CLR 21.1 2.2 29% 77.04 1016.0
14 00:54 W 9 16.09 Fair CLR 22.8 1.7 25% 77.06 1016.2
13 23:54 SW 9 16.09 Fair CLR 22.8 1.1 30 22.2 24% 77.09 1016.7
13 22:54 W 11 16.09 Fair CLR 22.8 0.6 23% 77.09 1017.1
13 21:54 NW 11 16.09 Fair CLR 24.4 1.1 22% 25 77.06 1017.3
13 20:54 W 13 16.09 Fair CLR 25 0.6 20% 25 77.01 1016.9
13 19:54 W 15 16.09 A Few Clouds FEW110 27.2 1.7 19% 26 77.04 1017.5
13 18:54 W 30 G 43 16.09 Fair CLR 28.3 0.6 17% 27 77.04 1017.4
13 17:54 Calm 16.09 Partly Cloudy SCT110 29.4 -1.1 35.6 29.4 14% 28 77.01 1017.2
13 16:54 W 28 16.09 A Few Clouds FEW120 30 0 14% 28 77.01 1016.6
13 15:54 SW 39 G 67 16.09 Fair and Breezy CLR 32.8 -1.1 11% 30 76.96 1015.7
13 14:54 W 9 G 48 16.09 Fair CLR 33.3 -4.4 8% 31 76.96 1015.4
13 13:54 W 26 G 41 16.09 Fair CLR 33.9 -3.9 8% 31 76.99 1015.3
13 12:54 NW 13 16.09 Fair CLR 33.3 -3.3 9% 31 77.04 1016.2
13 11:54 Vrbl 9 16.09 Fair CLR 31.7 -0.6 31.7 16.7 12% 30 77.09 1016.9
13 10:54 Calm 16.09 Fair CLR 28.9 -1.1 14% 27 77.11 1017.3
13 09:54 N 7 16.09 Fair CLR 25 -0.6 18% 25 77.14 1018.0
13 08:54 N 6 16.09 Fair CLR 22.2 0 23% 77.11 1018.0
13 07:54 Calm 16.09 Fair CLR 18.9 -1.1 26% 77.11 1018.3
13 06:54 Calm 16.09 Fair CLR 18.3 -1.7 26% 77.09 1018.0
13 05:54 Calm 16.09 Fair CLR 17.2 -2.2 23.9 15.6 27% 77.06 1017.3
13 04:54 Calm 16.09 Fair CLR 19.4 -1.7 24% 77.01 1016.2
13 03:54 S 9 16.09 Fair CLR 17.2 -1.7 28% 77.01 1015.9
13 02:54 W 17 16.09 Fair CLR 17.2 -2.2 27% 76.99 1015.9
13 01:54 N 7 16.09 Fair CLR 21.7 -2.2 20% 76.99 1015.1
13 00:54 Calm 16.09 Fair CLR 21.1 -2.8 20% 76.99 1015.5
12 23:54 SW 15 16.09 Fair CLR 22.8 -2.2 31.1 21.7 19% 76.99 1015.5
12 22:54 S 7 16.09 Fair CLR 23.9 -2.8 17% 24 76.99 1015.7
12 21:54 SE 9 16.09 Fair CLR 25.6 -2.2 16% 25 76.96 1015.4
12 20:54 Calm 16.09 A Few Clouds FEW120 27.8 -2.8 13% 26 76.96 1015.5
12 19:54 Vrbl 7 16.09 Fair CLR 28.3 -2.8 13% 27 76.94 1015.3
12 18:54 SW 24 G 39 16.09 A Few Clouds FEW110 29.4 -2.2 13% 28 76.91 1015.3
12 17:54 N 33 16.09 Fair and Breezy CLR 31.1 -5.6 35.6 31.1 9% 29 76.84 1013.9
12 16:54 W 31 G 56 16.09 Fair CLR 32.8 -7.2 7% 30 76.81 1013.7
12 15:54 NW 24 G 48 16.09 Fair CLR 35 -6.7 6% 32 76.84 1013.5
12 14:54 NW 30 G 46 16.09 Fair CLR 33.3 -5.6 8% 31 76.86 1013.5
12 13:54 W 26 G 46 16.09 Fair CLR 33.9 -4.4 8% 31 76.91 1014.1
12 12:54 NW 17 16.09 Fair CLR 32.8 -4.4 9% 30 76.96 1014.8
12 11:54 W 20 G 33 16.09 Fair CLR 31.7 -2.8 31.7 18.3 11% 30 76.99 1015.5
12 10:54 W 13 16.09 Fair CLR 29.4 -2.8 12% 28 77.01 1015.9
12 09:54 W 13 16.09 Fair CLR 26.7 -5 12% 26 77.01 1016.0
12 08:54 W 7 16.09 Fair CLR 23.3 -5.6 14% 77.01 1016.2
12 07:54 W 6 16.09 Fair CLR 21.1 -6.1 16% 76.99 1015.7
12 06:54 Calm 16.09 Fair CLR 18.3 -6.7 18% 76.94 1015.1
12 05:54 SW 7 16.09 Fair CLR 18.9 -7.8 23.3 16.1 16% 76.91 1014.6
12 04:54 W 13 16.09 Fair CLR 17.2 -7.8 17% 76.89 1014.4
Date Time (mdt) Wind (kph) Vis. (km) Weather Sky Cond. Air Dwpt Max. Min. Relative Humidity Wind Chill (°C) Heat Index (°C) altimeter (cm) sea level (mb) 1 hr 3 hr 6 hr
6 hour
Temperature (ºC) Pressure Precipitation (cm)